Weather in Krymskaya Sludka

Russia / Udmurt Republic     55°59′52″N   51°25′34″E
temp.,
°C
wind,
m/s
gust,
m/s
humid.,
%
clouds,
%
prec.,
mm/h
press.,
hPa
HPBL,
m
9 may, sun
sun901:00+10se248690 0.0 101563
04:00+9ese368610 0.0 101597
07:00+12se387614 0.0 1015214
10:00+19sse57505 0.0 1015699
13:00+22sse56361 0.0 10142362
16:00+23s573684 0.0 10142662
19:00+18s3859100 0.0 1015208
22:00+15ese346653 0.0 101568
10 may, mon
mon1001:00+15se3767100 0.0 1016159
04:00+14sse3764100 0.0 1017126
07:00+15ese2564100 0.0 1019140
10:00+19sse2449100 0.0 1019548
13:00+22s4640100 0.0 10201498
16:00+23sse2442100 0.0 10201695
19:00+15nw61084100 0.9 1022369
22:00+14n4795100 9.5 1024248
11 may, tue
tue1101:00+11n4696100 0.0 1025257
04:00+9n5994100 0.0 1027366
07:00+9nne5790100 0.0 1029393
10:00+13nne457648 0.0 1029563
13:00+18nne33607 0.0 1029943
16:00+19nne33501 0.0 10291217
19:00+17nne35625 0.0 1029175
22:00+12ne35773 0.0 103176
12 may, wed
wed1201:00+10ne36815 0.0 1031105
04:00+9ene22842 0.0 103232
07:00+12e36715 0.0 1032229
10:00+17ene46455 0.0 1032769
13:00+20e343536 0.0 10311104
16:00+21ene333410 0.0 10301278
19:00+18ene23538 0.0 103044
22:00+14ene22591 0.0 103011
13 may, thu
thu1301:00+12ene11641 0.0 103010
04:00+11ene12721 0.0 103010
07:00+15e25652 0.0 1030174
10:00+20ese35506 0.0 1029759
13:00+23ese35423 0.0 10281515
16:00+24se34410 0.0 10271602
19:00+22ese22561 0.0 102716
22:00+17ese22661 0.0 102713